| time (UTC) | temp C | wind direction | speed KPH | gust KPH | rain 1hr cm | rain 24hr cm | rain mn cm | humidity % | barometer mb |
| 20260904220506 | 15 | 171 | 0.0 | 0.0 | 0.00 | 0.00 | 0.05 | 85 | 1013.0 |
| 20260904215505 | 16 | 172 | 0.0 | 0.0 | 0.00 | 0.00 | 0.05 | 85 | 1012.9 |
| 20260904213503 | 17 | 224 | 0.0 | 0.0 | 0.00 | 0.00 | 0.03 | 81 | 1012.5 |
| 20260904212502 | 18 | 224 | 3.2 | 0.0 | 0.00 | 0.00 | 0.03 | 76 | 1012.4 |
| 20260904211501 | 19 | 242 | 0.0 | 0.0 | 0.00 | 0.00 | 0.03 | 67 | 1012.1 |
| 20260904210500 | 20 | 232 | 0.0 | 0.0 | 0.00 | 0.00 | 0.03 | 63 | 1012.0 |
| 20260904203457 | 21 | 360 | 0.0 | 0.0 | 0.00 | 0.00 | 0.03 | 61 | 1011.7 |
| 20260904202456 | 21 | 360 | 0.0 | 0.0 | 0.00 | 0.00 | 0.03 | 64 | 1011.7 |
| 20260904201454 | 20 | 323 | 0.0 | 0.0 | 0.00 | 0.00 | 0.03 | 63 | 1011.8 |
| 20260904200454 | 19 | 324 | 0.0 | 0.0 | 0.00 | 0.00 | 0.03 | 70 | 1011.8 |
| 20260904195452 | 18 | 330 | 6.4 | 0.0 | 0.00 | 0.00 | 0.03 | 72 | 1011.9 |
| 20260904194451 | 18 | 331 | 8.0 | 0.0 | 0.00 | 0.00 | 0.03 | 70 | 1012.0 |
| 20260904193452 | 19 | 321 | 0.0 | 0.0 | 0.00 | 0.00 | 0.03 | 70 | 1012.0 |
| 20260904192450 | 19 | 327 | 4.8 | 0.0 | 0.00 | 0.00 | 0.03 | 71 | 1012.0 |
| 20260904191448 | 19 | 331 | 0.0 | 0.0 | 0.00 | 0.00 | 0.03 | 69 | 1012.1 |
| 20260904190447 | 19 | 330 | 0.0 | 0.0 | 0.00 | 0.00 | 0.03 | 68 | 1012.1 |
| 20260904185446 | 18 | 119 | 0.0 | 0.0 | 0.00 | 0.00 | 0.03 | 68 | 1012.1 |
| 20260904184445 | 18 | 119 | 0.0 | 0.0 | 0.00 | 0.00 | 0.03 | 67 | 1012.1 |
| 20260904183445 | 18 | 132 | 0.0 | 0.0 | 0.00 | 0.00 | 0.03 | 70 | 1012.0 |
| 20260904182443 | 18 | 132 | 0.0 | 0.0 | 0.00 | 0.00 | 0.03 | 71 | 1012.0 |
| 20260904181442 | 18 | 127 | 6.4 | 0.0 | 0.00 | 0.00 | 0.03 | 72 | 1012.0 |
| 20260904180441 | 17 | 122 | 0.0 | 0.0 | 0.00 | 0.00 | 0.03 | 74 | 1011.9 |
| 20260904175440 | 17 | 129 | 0.0 | 0.0 | 0.00 | 0.00 | 0.03 | 74 | 1011.9 |
| 20260904174440 | 17 | 133 | 0.0 | 0.0 | 0.00 | 0.00 | 0.03 | 77 | 1011.9 |
| 20260904173438 | 16 | 133 | 0.0 | 0.0 | 0.00 | 0.00 | 0.03 | 80 | 1011.9 |
| 20260904172437 | 16 | 133 | 0.0 | 0.0 | 0.00 | 0.00 | 0.03 | 84 | 1011.8 |
| 20260904171436 | 16 | 132 | 0.0 | 0.0 | 0.00 | 0.00 | 0.03 | 87 | 1011.7 |
| 20260904170436 | 15 | 86 | 3.2 | 0.0 | 0.00 | 0.00 | 0.03 | 87 | 1011.8 |
| 20260904165434 | 15 | 79 | 0.0 | 0.0 | 0.00 | 0.00 | 0.03 | 90 | 1011.7 |
| 20260904164433 | 14 | 72 | 0.0 | 0.0 | 0.00 | 0.00 | 0.03 | 91 | 1011.7 |
| 20260904163432 | 14 | 169 | 0.0 | 0.0 | 0.00 | 0.00 | 0.03 | 92 | 1011.6 |
| 20260904162431 | 13 | 170 | 0.0 | 0.0 | 0.00 | 0.00 | 0.03 | 93 | 1011.6 |
| 20260904161430 | 13 | 170 | 0.0 | 0.0 | 0.00 | 0.00 | 0.03 | 93 | 1011.5 |
| 20260904160429 | 13 | 170 | 0.0 | 0.0 | 0.00 | 0.00 | 0.03 | 93 | 1011.6 |
| 20260904155428 | 13 | 170 | 0.0 | 0.0 | 0.00 | 0.00 | 0.00 | 93 | 1011.6 |
| 20260904154427 | 13 | 170 | 0.0 | 0.0 | 0.00 | 0.00 | 0.00 | 93 | 1011.7 |
| 20260904153427 | 13 | 170 | 0.0 | 0.0 | 0.00 | 0.00 | 0.00 | 93 | 1011.7 |
| 20260904152426 | 12 | 170 | 0.0 | 0.0 | 0.00 | 0.00 | 0.18 | 93 | 1011.6 |
| 20260904150423 | 12 | 170 | 0.0 | 0.0 | 0.00 | 0.00 | 0.18 | 93 | 1011.4 |
| 20260904145422 | 12 | 170 | 0.0 | 0.0 | 0.00 | 0.00 | 0.18 | 93 | 1011.3 |
| 20260904143420 | 12 | 170 | 0.0 | 0.0 | 0.00 | 0.00 | 0.18 | 93 | 1011.0 |
| 20260904142419 | 12 | 170 | 0.0 | 0.0 | 0.00 | 0.00 | 0.18 | 93 | 1010.9 |
| 20260904141418 | 12 | 170 | 0.0 | 0.0 | 0.00 | 0.00 | 0.18 | 93 | 1010.8 |
| 20260904140417 | 12 | 170 | 0.0 | 0.0 | 0.00 | 0.00 | 0.18 | 93 | 1010.8 |
| 20260904134415 | 12 | 170 | 0.0 | 0.0 | 0.00 | 0.00 | 0.18 | 93 | 1010.6 |
| 20260904133414 | 12 | 170 | 0.0 | 0.0 | 0.00 | 0.00 | 0.18 | 93 | 1010.5 |
| 20260904132413 | 12 | 170 | 0.0 | 0.0 | 0.00 | 0.00 | 0.18 | 93 | 1010.4 |
| 20260904131412 | 12 | 170 | 0.0 | 0.0 | 0.00 | 0.00 | 0.18 | 93 | 1010.5 |
| 20260904130411 | 12 | 170 | 0.0 | 0.0 | 0.00 | 0.00 | 0.18 | 93 | 1010.5 |
| 20260904125410 | 12 | 170 | 0.0 | 0.0 | 0.00 | 0.00 | 0.18 | 93 | 1010.3 |
| 20260904124409 | 12 | 170 | 0.0 | 0.0 | 0.00 | 0.00 | 0.18 | 92 | 1010.2 |
| 20260904123408 | 12 | 170 | 0.0 | 0.0 | 0.00 | 0.00 | 0.15 | 92 | 1010.1 |
| 20260904122407 | 12 | 170 | 0.0 | 0.0 | 0.00 | 0.00 | 0.15 | 92 | 1010.1 |
| 20260904121406 | 12 | 170 | 0.0 | 0.0 | 0.00 | 0.00 | 0.15 | 92 | 1009.9 |
| 20260904120405 | 12 | 170 | 0.0 | 0.0 | 0.00 | 0.00 | 0.13 | 92 | 1009.9 |
| 20260904115404 | 12 | 170 | 0.0 | 0.0 | 0.00 | 0.00 | 0.13 | 92 | 1009.9 |
| 20260904114403 | 12 | 170 | 0.0 | 0.0 | 0.00 | 0.00 | 0.13 | 92 | 1009.9 |
| 20260904113402 | 12 | 170 | 0.0 | 0.0 | 0.00 | 0.00 | 0.10 | 92 | 1009.7 |
| 20260904112401 | 12 | 169 | 0.0 | 0.0 | 0.00 | 0.00 | 0.10 | 92 | 1009.6 |
| 20260904110359 | 12 | 169 | 0.0 | 0.0 | 0.00 | 0.00 | 0.08 | 92 | 1009.6 |
| 20260904105358 | 12 | 169 | 0.0 | 0.0 | 0.00 | 0.00 | 0.08 | 92 | 1009.6 |
| 20260904104357 | 12 | 169 | 0.0 | 0.0 | 0.00 | 0.00 | 0.08 | 91 | 1009.6 |
| 20260904103356 | 12 | 169 | 0.0 | 0.0 | 0.00 | 0.00 | 0.08 | 91 | 1009.5 |
| 20260904102355 | 12 | 169 | 0.0 | 0.0 | 0.00 | 0.00 | 0.08 | 91 | 1009.4 |
| 20260904101354 | 12 | 169 | 0.0 | 0.0 | 0.00 | 0.00 | 0.08 | 91 | 1009.3 |
| 20260904100353 | 12 | 169 | 0.0 | 0.0 | 0.00 | 0.00 | 0.08 | 91 | 1009.3 |
| 20260904095352 | 12 | 169 | 0.0 | 0.0 | 0.00 | 0.00 | 0.08 | 91 | 1009.2 |
| 20260904094350 | 12 | 169 | 0.0 | 0.0 | 0.00 | 0.00 | 0.08 | 91 | 1009.2 |
| 20260904093349 | 13 | 169 | 0.0 | 0.0 | 0.00 | 0.00 | 0.08 | 91 | 1009.2 |
| 20260904092349 | 13 | 169 | 0.0 | 0.0 | 0.00 | 0.00 | 0.08 | 91 | 1009.2 |
| 20260904090347 | 13 | 169 | 0.0 | 0.0 | 0.00 | 0.00 | 0.08 | 91 | 1009.1 |
| 20260904085346 | 13 | 169 | 0.0 | 0.0 | 0.00 | 0.00 | 0.08 | 90 | 1009.1 |
| 20260904084344 | 13 | 169 | 0.0 | 0.0 | 0.00 | 0.00 | 0.08 | 90 | 1009.0 |
| 20260904083344 | 13 | 169 | 0.0 | 0.0 | 0.00 | 0.00 | 0.08 | 90 | 1009.1 |
| 20260904081341 | 13 | 169 | 0.0 | 0.0 | 0.00 | 0.00 | 0.08 | 90 | 1009.0 |
| 20260904080341 | 13 | 169 | 0.0 | 0.0 | 0.00 | 0.00 | 0.08 | 90 | 1009.1 |
| 20260904074339 | 13 | 169 | 0.0 | 0.0 | 0.00 | 0.00 | 0.08 | 90 | 1009.1 |
| 20260904073337 | 13 | 169 | 0.0 | 0.0 | 0.00 | 0.00 | 0.08 | 90 | 1009.1 |
| 20260904072336 | 13 | 169 | 0.0 | 0.0 | 0.00 | 0.00 | 0.08 | 90 | 1009.1 |
| 20260904071336 | 13 | 169 | 0.0 | 0.0 | 0.00 | 0.00 | 0.08 | 90 | 1009.1 |
| 20260904070334 | 13 | 169 | 0.0 | 0.0 | 0.00 | 0.00 | 0.08 | 90 | 1009.0 |
| 20260904065334 | 13 | 169 | 0.0 | 0.0 | 0.00 | 0.00 | 0.08 | 90 | 1009.0 |
| 20260904063332 | 13 | 169 | 0.0 | 0.0 | 0.00 | 0.00 | 0.08 | 89 | 1009.1 |
| 20260904062331 | 13 | 169 | 0.0 | 0.0 | 0.00 | 0.00 | 0.08 | 89 | 1008.9 |
| 20260904061330 | 13 | 169 | 0.0 | 0.0 | 0.00 | 0.00 | 0.08 | 90 | 1008.9 |
| 20260904060328 | 13 | 169 | 0.0 | 0.0 | 0.00 | 0.00 | 0.08 | 90 | 1008.9 |
| 20260904055328 | 13 | 169 | 0.0 | 0.0 | 0.00 | 0.00 | 0.08 | 90 | 1009.0 |
| 20260904054327 | 13 | 169 | 0.0 | 0.0 | 0.00 | 0.00 | 0.08 | 90 | 1009.1 |
| 20260904053325 | 13 | 169 | 0.0 | 0.0 | 0.00 | 0.00 | 0.08 | 89 | 1009.1 |
| 20260904052324 | 13 | 169 | 0.0 | 0.0 | 0.00 | 0.00 | 0.08 | 89 | 1009.1 |
| 20260904051323 | 13 | 169 | 0.0 | 0.0 | 0.00 | 0.00 | 0.08 | 88 | 1009.1 |
| 20260904050322 | 13 | 169 | 0.0 | 0.0 | 0.00 | 0.00 | 0.08 | 88 | 1009.2 |
| 20260904044321 | 13 | 169 | 0.0 | 0.0 | 0.00 | 0.00 | 0.08 | 88 | 1009.2 |
| 20260904043319 | 13 | 169 | 0.0 | 0.0 | 0.00 | 0.00 | 0.08 | 87 | 1009.2 |
| 20260904042318 | 13 | 169 | 0.0 | 0.0 | 0.00 | 0.00 | 0.08 | 87 | 1009.3 |
| 20260904041317 | 13 | 169 | 0.0 | 0.0 | 0.00 | 0.00 | 0.08 | 87 | 1009.1 |
| 20260904040316 | 13 | 169 | 0.0 | 0.0 | 0.00 | 0.00 | 0.08 | 86 | 1009.2 |
| 20260904035315 | 13 | 169 | 0.0 | 0.0 | 0.00 | 0.00 | 0.08 | 86 | 1009.2 |
| 20260904034314 | 14 | 169 | 0.0 | 0.0 | 0.00 | 0.00 | 0.08 | 86 | 1009.1 |
| 20260904032312 | 14 | 169 | 0.0 | 0.0 | 0.00 | 0.00 | 0.08 | 85 | 1008.9 |
| 20260904031311 | 14 | 169 | 0.0 | 0.0 | 0.00 | 0.00 | 0.08 | 83 | 1008.8 |
| 20260904030310 | 15 | 169 | 0.0 | 0.0 | 0.00 | 0.00 | 0.08 | 82 | 1008.6 |
| 20260904025309 | 15 | 169 | 0.0 | 0.0 | 0.00 | 0.00 | 0.08 | 81 | 1008.6 |
| 20260904024308 | 15 | 169 | 0.0 | 0.0 | 0.00 | 0.00 | 0.08 | 81 | 1008.5 |
| 20260904023307 | 15 | 169 | 0.0 | 0.0 | 0.00 | 0.00 | 0.08 | 81 | 1008.5 |
| 20260904020304 | 15 | 169 | 0.0 | 0.0 | 0.00 | 0.00 | 0.08 | 80 | 1008.5 |
| 20260904014302 | 16 | 170 | 8.0 | 0.0 | 0.00 | 0.00 | 0.08 | 78 | 1008.6 |
| 20260904012300 | 15 | 190 | 0.0 | 0.0 | 0.00 | 0.00 | 0.08 | 79 | 1008.6 |
| 20260904011259 | 15 | 198 | 0.0 | 0.0 | 0.00 | 0.00 | 0.08 | 80 | 1008.7 |
| 20260904010258 | 15 | 184 | 0.0 | 0.0 | 0.00 | 0.00 | 0.08 | 78 | 1008.6 |
| 20260904005257 | 15 | 184 | 0.0 | 0.0 | 0.00 | 0.00 | 0.08 | 74 | 1008.5 |
| 20260904004256 | 16 | 182 | 0.0 | 0.0 | 0.00 | 0.00 | 0.08 | 74 | 1008.5 |
| 20260904003255 | 16 | 232 | 0.0 | 0.0 | 0.00 | 0.00 | 0.08 | 73 | 1008.5 |
| 20260904002254 | 16 | 262 | 0.0 | 0.0 | 0.00 | 0.00 | 0.08 | 74 | 1008.6 |
| 20260904001253 | 16 | 203 | 0.0 | 0.0 | 0.00 | 0.00 | 0.08 | 78 | 1008.6 |
| 20260904000252 | 15 | 202 | 1.6 | 0.0 | 0.00 | 0.00 | 0.08 | 80 | 1008.7 |
| 20260903235251 | 15 | 202 | 0.0 | 0.0 | 0.00 | 0.00 | 0.08 | 81 | 1008.7 |
| 20260903234250 | 15 | 202 | 0.0 | 0.0 | 0.00 | 0.00 | 0.08 | 82 | 1008.8 |
| 20260903233249 | 15 | 202 | 0.0 | 0.0 | 0.00 | 0.00 | 0.08 | 81 | 1008.8 |
| 20260903232248 | 15 | 226 | 0.0 | 0.0 | 0.00 | 0.00 | 0.08 | 80 | 1008.8 |
| 20260903231247 | 15 | 226 | 0.0 | 0.0 | 0.00 | 0.00 | 0.08 | 78 | 1009.1 |
| 20260903230245 | 15 | 216 | 3.2 | 0.0 | 0.00 | 0.00 | 0.08 | 77 | 1009.2 |
| 20260903225245 | 16 | 206 | 4.8 | 0.0 | 0.00 | 0.00 | 0.08 | 75 | 1009.2 |
| 20260903224244 | 16 | 194 | 0.0 | 0.0 | 0.00 | 0.00 | 0.08 | 73 | 1009.2 |
| 20260903223243 | 16 | 244 | 0.0 | 0.0 | 0.00 | 0.00 | 0.08 | 71 | 1009.0 |